Regional Weather Roundup
Issued by NWS

Home | Current Version | Previous Version | Text Only | Print | Product List | Glossary Off
Versions: 1 2 3 4 5 6 7 8 9 10 11 12 13 14 15 16 17 18 19 20 21 22 23 24 25 26 27 28 29 30 31 32 33 34 35 36 37 38 39 40 41 42 43 44 45 46 47 48 49 50

000
ASUS43 KLMK 281310
RWRKY
KENTUCKY REGIONAL WEATHER ROUNDUP
NATIONAL WEATHER SERVICE LOUISVILLE KY
900 AM EDT THU JUL 28 2016

NOTE "FAIR" INDICATES FEW OR NO CLOUDS BELOW 12,000 FEET
WITH NO SIGNIFICANT WEATHER AND/OR OBSTRUCTIONS TO VISIBILITY.

KYZ001>023-026-027-061>063-070>075-281400-
WESTERN AND SOUTH CENTRAL KENTUCKY

CITY           SKY/WX    TMP DP  RH WIND       PRES   REMARKS
PADUCAH        CLOUDY    75  73  93 CALM      29.92R
HENDERSON      NOT AVBL
OWENSBORO      CLOUDY    75  73  93 SW8       29.93S
HOPKINSVILLE   HVY RAIN  72  72 100 CALM      29.94R FOG
BOWLING GREEN  CLOUDY    74  71  91 CALM      29.94S
GLASGOW        CLOUDY    71  71 100 N3        29.94R
$$

KYZ024-025-028>034-038-045-046-053-281400-
NORTH CENTRAL KENTUCKY

CITY           SKY/WX    TMP DP  RH WIND       PRES   REMARKS
LOUISVILLE/SDF LGT RAIN  75  72  90 SW6       29.91F
LOUISVILLE/LOU LGT RAIN  75  72  90 W3        29.92F FOG
FORT KNOX      CLOUDY    73  72  94 W3        29.92S
$$

KYZ035>037-039>044-047>052-055>060-089>105-281400-
NORTHEAST KENTUCKY

CITY           SKY/WX    TMP DP  RH WIND       PRES   REMARKS
LEXINGTON      HVY RAIN  72  70  93 N5        29.95R FOG
COVINGTON      CLOUDY    72  72 100 S12       29.90F
FRANKFORT      LGT RAIN  72  69  90 SE3       29.93F
$$

KYZ054-064>069-076>088-106>120-281400-
SOUTHEAST KENTUCKY

CITY           SKY/WX    TMP DP  RH WIND       PRES   REMARKS
JACKSON        CLOUDY    72  69  90 CALM      29.98S
LONDON         CLOUDY    75  69  81 S6        29.97R
SOMERSET       CLOUDY    73  73 100 S6        29.96S
MIDDLESBORO    CLOUDY    74  72  95 NE3       30.00R
MONTICELLO     CLOUDY   N/A N/A N/A S9G17     29.97R
$$




USA.gov is the U.S. government's official web portal to all federal, state and local government web resources and services.